Wind_Speed
39 39 40 42 43 43 42 41 42 41 41 41 40 40 38 37 36 34 33 31 30 29 27 25 23 21 20 19 18 17 16 15 14 12 11 11 11 10 10 10 10 10 10 9 10 10 10 10 9 9 8 8 6 5 5 4 4 5 5 5 5 5 7 7 9 17 24 22 20 24 26 27 29 30 31 34 35 34 34 33 33 32 32 33 34
40 40 41 42 43 44 42 42 42 42 42 41 40 40 39 37 36 34 33 31 30 28 27 25 23 21 20 19 18 17 16 15 14 13 12 12 12 12 11 11 10 10 11 11 11 11 10 10 10 9 8 8 7 6 6 6 6 6 6 6 6 5 7 9 10 13 21 26 25 25 26 27 29 30 31 33 34 35 35 35 34 33 32 33 33
40 41 41 42 43 43 42 42 42 42 42 42 41 40 39 37 36 34 33 31 30 28 26 24 23 22 21 20 19 18 17 16 14 13 13 13 13 12 12 11 11 11 12 12 11 11 11 11 10 10 9 8 8 8 8 7 7 7 7 6 7 7 7 9 10 11 18 25 26 25 27 28 28 29 30 31 31 33 35 36 35 33 32 32 33
40 41 42 42 43 43 43 42 43 43 43 43 42 41 39 38 36 34 33 32 31 29 26 25 24 23 22 21 20 19 18 17 15 14 14 13 13 13 12 12 12 12 12 12 12 11 11 11 11 11 10 10 9 9 9 9 8 8 7 7 8 9 9 9 10 11 15 22 25 25 26 26 27 28 30 31 31 32 34 35 35 34 33 32 32
41 42 42 43 43 43 43 44 44 44 44 43 43 42 40 38 37 35 34 33 32 30 28 26 25 24 23 22 21 20 19 17 15 14 15 14 13 12 12 12 12 12 12 11 11 11 11 11 11 11 11 11 10 10 10 10 10 9 8 8 9 10 10 10 10 11 14 19 25 25 22 23 26 27 26 29 33 34 35 35 33 32 33 32 31
42 42 43 44 44 44 44 45 45 45 44 44 44 42 41 39 38 36 35 34 33 31 30 28 26 25 24 23 22 21 19 17 15 15 15 15 13 13 12 12 11 11 11 11 10 11 11 11 11 11 12 12 11 11 11 11 11 10 9 10 10 10 10 10 10 12 13 15 20 23 22 22 24 26 25 26 30 33 35 38 34 29 29 31 31
42 43 44 44 45 45 45 45 45 45 44 44 44 43 42 40 39 38 36 35 33 32 30 29 27 26 24 24 22 21 20 17 16 16 16 15 14 13 12 11 11 10 10 10 10 11 11 11 11 12 12 12 12 12 12 12 12 11 11 11 11 11 11 11 11 11 12 14 16 19 21 21 23 26 27 27 28 28 27 31 34 29 26 29 31
43 43 44 44 45 46 46 45 45 45 44 44 44 44 43 41 40 39 37 36 34 32 31 29 28 27 25 24 23 22 20 18 17 18 17 15 14 12 12 11 11 10 10 10 10 11 11 11 11 12 13 13 13 13 13 13 13 13 12 12 12 12 12 12 11 11 12 14 16 18 21 22 22 25 27 26 27 27 22 23 27 28 29 30 30
43 43 43 45 45 45 45 44 44 44 44 44 45 44 44 42 41 40 38 37 34 32 31 30 29 28 27 26 25 23 21 19 18 18 17 15 14 13 12 11 11 10 10 11 11 11 11 11 12 13 13 14 14 14 14 14 14 14 13 13 14 14 13 12 12 12 13 14 17 18 19 18 19 24 27 24 21 23 23 24 26 27 29 31 29
43 43 44 44 44 43 43 43 43 43 44 44 45 45 44 43 42 41 39 37 35 33 32 31 30 30 29 28 27 25 22 20 19 18 17 15 14 13 12 12 11 11 11 11 12 12 12 12 13 13 14 15 15 15 15 15 15 15 15 15 15 14 14 13 12 12 13 14 16 16 16 17 17 20 22 22 20 22 24 25 26 27 27 29 29
42 43 43 42 41 41 42 42 42 43 44 44 44 44 45 44 43 42 40 38 36 34 33 33 32 31 30 29 28 26 24 22 20 20 18 16 15 14 13 12 12 12 12 12 12 12 13 13 13 14 15 16 16 17 17 17 17 17 17 16 16 15 14 13 13 12 13 14 15 15 16 17 18 17 18 21 22 23 24 24 25 26 25 24 26
41 42 41 40 40 41 42 42 42 43 44 44 44 44 44 44 43 42 41 39 37 36 35 34 33 32 31 30 29 27 25 23 22 21 19 17 16 15 14 14 13 12 12 12 12 13 14 14 15 15 16 17 17 18 18 19 19 19 19 18 17 15 14 13 13 13 13 15 16 15 15 18 18 17 18 22 24 25 24 24 23 24 25 23 23
39 39 38 38 39 40 41 41 42 43 43 44 44 43 43 43 44 43 42 40 38 37 37 36 34 33 32 31 30 28 26 24 23 22 20 19 18 18 17 16 15 14 13 13 14 14 15 15 16 17 17 18 19 19 20 21 20 20 20 19 19 17 14 13 13 13 14 16 17 17 15 16 17 17 19 22 23 24 23 24 24 23 24 23 23
36 36 36 37 37 37 38 40 41 42 42 42 42 42 43 44 43 43 42 41 40 40 39 37 36 35 34 33 31 29 27 26 24 23 22 21 20 20 19 18 17 16 15 15 15 15 16 17 17 18 19 19 20 21 21 21 21 21 20 20 20 18 14 13 12 13 13 15 17 18 16 15 17 21 22 20 20 22 23 23 24 23 24 27 27
34 34 35 35 35 36 37 38 40 40 40 40 40 41 42 42 42 42 42 42 42 41 40 39 38 37 36 34 33 31 29 27 26 25 24 23 22 22 21 20 20 18 18 17 17 17 17 18 19 19 20 20 21 21 22 22 21 20 20 19 19 16 14 14 13 12 13 13 14 16 17 18 20 21 20 19 21 24 23 22 23 24 26 29 30
32 33 34 34 34 35 37 38 39 39 39 39 39 40 41 42 42 42 42 42 41 41 41 40 39 38 37 36 35 33 31 29 28 27 26 25 25 24 24 23 22 21 20 20 19 19 19 20 21 21 21 21 21 21 22 22 21 20 20 19 17 16 16 15 14 13 13 13 13 16 19 19 17 17 18 20 22 22 22 23 23 21 21 24 26
33 33 34 34 35 36 38 38 38 38 37 38 39 41 42 43 43 42 42 42 42 42 42 42 41 39 38 37 36 35 33 31 30 29 29 28 27 27 27 27 26 25 23 22 22 22 21 22 23 23 23 22 22 21 21 21 20 20 20 19 18 18 18 17 15 14 15 14 15 16 16 15 15 18 21 22 20 17 19 22 21 17 16 18 20
35 35 35 35 36 37 37 38 38 37 38 40 41 42 42 42 42 42 43 43 43 44 43 42 41 40 39 39 38 37 35 33 31 32 31 30 29 30 30 29 29 28 27 26 25 24 24 25 24 24 25 24 22 22 21 21 21 21 20 19 20 20 20 18 16 17 18 19 17 15 15 17 20 22 22 20 17 14 15 17 16 15 15 15 16
37 36 35 35 35 35 36 37 38 38 39 41 42 42 41 41 41 42 42 43 43 43 43 42 42 41 41 40 39 38 37 35 33 33 33 32 31 32 32 32 32 32 30 30 29 27 27 27 27 26 26 24 23 23 22 21 22 22 20 20 21 22 20 18 18 20 22 21 18 17 19 21 23 21 18 17 15 13 12 12 12 14 16 17 17
35 34 33 33 33 35 36 37 38 39 40 41 41 40 39 39 39 40 41 41 41 41 41 41 42 42 42 41 41 40 40 37 36 35 35 34 33 34 34 35 35 35 34 33 32 31 31 30 29 27 26 26 25 23 22 21 22 22 21 21 23 24 21 20 21 22 21 19 18 19 22 23 22 19 17 16 14 13 12 11 11 13 16 20 21
30 31 31 31 33 34 35 37 38 39 40 39 38 38 38 38 38 39 39 39 39 39 40 40 41 42 42 42 42 43 42 40 38 37 36 36 35 35 37 39 39 38 37 36 35 34 34 33 30 28 26 26 24 22 21 21 21 22 23 23 24 22 21 21 21 20 20 20 20 22 24 23 20 17 16 15 14 14 13 12 12 13 14 18 22
28 29 29 30 32 33 34 36 37 37 38 37 37 37 37 37 37 37 37 37 38 39 39 39 40 41 41 42 43 44 44 43 41 40 39 38 37 38 40 41 40 38 38 38 38 38 36 34 32 29 26 25 24 23 22 21 22 23 24 23 22 20 19 20 20 20 21 22 23 25 25 22 19 17 15 14 14 14 15 14 14 14 14 16 20
24 25 27 29 30 32 33 34 35 36 36 36 36 36 35 35 35 35 36 36 36 37 39 39 38 39 41 42 44 46 45 45 44 43 42 41 40 40 41 41 40 39 39 40 41 40 37 34 32 29 26 24 24 23 22 21 22 23 22 22 21 19 18 20 21 22 23 24 25 26 24 20 19 17 15 14 14 14 15 15 15 16 16 17 18
20 22 25 27 28 30 31 32 33 34 34 34 34 34 34 34 34 35 35 35 35 36 38 37 37 38 41 43 46 47 47 47 46 46 45 43 42 42 40 38 36 37 39 41 41 39 36 33 32 29 25 23 23 22 21 22 22 22 22 22 22 20 20 22 23 23 25 26 26 26 24 20 18 17 16 15 15 15 16 16 16 17 17 19 21
19 21 23 25 26 27 28 29 30 31 31 32 33 34 34 34 34 34 34 34 35 36 37 37 37 39 40 42 46 48 47 46 47 47 46 44 43 42 40 36 32 31 34 37 37 36 34 32 30 27 24 22 21 21 22 23 23 23 22 22 22 23 24 24 24 24 26 27 26 26 24 21 18 17 17 16 15 16 17 17 17 18 19 21 23
18 19 20 22 23 23 25 26 27 28 29 31 32 33 33 34 34 34 34 35 36 37 37 36 36 37 38 41 45 45 41 41 43 43 42 41 41 41 40 38 33 30 30 33 34 33 32 29 27 24 22 21 20 21 23 23 23 23 22 21 22 25 25 25 25 25 27 27 27 26 24 21 18 17 17 17 16 16 17 18 19 19 19 22 25
15 16 17 18 19 20 22 23 24 25 27 29 30 31 32 33 33 34 35 36 36 37 37 35 34 35 37 40 41 38 35 35 37 37 36 36 36 36 37 38 36 33 33 34 33 30 29 26 24 22 20 20 21 22 23 24 24 25 26 25 25 26 25 24 25 25 26 26 26 24 23 21 19 17 17 17 17 16 16 17 19 20 20 22 25
12 13 14 15 16 17 19 20 22 23 25 27 29 30 32 33 34 36 37 37 37 37 36 35 35 35 35 36 35 32 33 35 35 34 33 32 32 31 31 34 37 38 38 37 32 30 28 25 23 21 21 22 23 24 25 26 27 28 29 29 27 26 24 24 24 25 26 25 24 23 22 21 19 18 17 17 17 16 16 17 18 19 20 21 22
10 10 11 13 14 15 17 19 21 22 24 26 28 30 31 32 34 36 36 35 35 35 34 34 35 34 33 33 31 30 34 36 34 31 30 29 28 28 27 28 31 35 38 37 31 29 29 28 26 25 24 25 26 26 27 27 27 29 30 29 27 25 24 24 25 26 26 25 23 23 22 21 20 18 17 17 17 16 16 17 18 18 20 20 22
9 10 11 12 13 15 16 18 20 22 23 25 26 28 28 29 30 32 32 31 30 31 31 32 32 30 30 32 31 31 34 35 31 29 28 27 27 26 25 25 26 29 33 32 29 28 29 28 28 28 27 27 28 27 27 26 27 28 28 27 26 25 24 24 25 26 26 24 23 22 21 21 20 18 17 18 18 16 16 17 17 18 19 20 22
10 11 12 13 13 14 15 17 18 20 21 22 23 24 24 25 26 27 27 28 27 27 27 28 28 27 27 29 29 28 29 29 26 24 23 22 21 21 22 22 22 24 25 26 28 29 28 27 27 27 27 27 28 28 27 27 27 29 29 28 27 27 27 27 26 25 25 24 23 22 22 21 20 18 17 17 18 17 17 17 17 18 19 20 21
10 10 10 11 12 13 14 14 15 16 17 18 19 19 20 21 22 22 22 22 23 23 22 22 22 21 21 22 23 24 24 23 21 19 18 17 18 18 19 20 21 20 20 21 26 29 27 26 26 26 26 26 28 28 27 27 29 30 31 31 30 30 29 28 25 24 24 23 23 22 22 21 20 19 17 16 17 18 18 18 18 19 20 20 21
7 8 8 8 9 10 11 12 12 13 14 15 16 16 17 18 19 18 17 17 18 18 17 17 16 16 17 17 18 20 20 20 19 17 15 16 17 17 18 19 19 19 19 22 26 27 26 26 27 26 25 26 27 26 27 28 30 31 31 31 31 31 30 27 24 23 23 23 23 23 22 21 20 18 17 16 16 17 18 19 19 19 19 20 21
5 6 7 7 8 8 9 9 10 11 11 12 13 14 14 14 15 15 14 13 13 13 13 13 12 12 13 14 15 16 16 16 16 15 14 15 16 17 17 18 18 19 21 24 26 26 25 25 27 27 26 27 27 27 28 30 31 32 31 31 31 31 29 25 23 23 24 24 24 23 22 21 20 18 18 16 15 17 19 19 19 19 18 19 20
5 5 6 7 7 7 7 8 8 8 9 9 10 10 11 11 11 12 12 11 11 10 10 10 9 9 10 10 11 12 12 12 12 12 11 10 12 14 16 18 18 19 21 24 25 24 23 23 24 25 26 28 29 30 30 31 31 32 31 30 30 30 28 24 23 23 24 24 24 23 22 21 20 18 17 16 16 17 19 19 19 18 18 19 20
4 5 5 6 6 6 6 6 6 7 7 7 7 8 8 8 8 8 8 8 8 9 9 9 8 8 10 10 10 11 12 12 12 12 11 9 8 8 10 11 12 13 14 17 19 21 22 23 23 22 23 24 26 27 29 30 30 30 29 28 27 27 26 23 22 22 24 24 23 22 22 21 20 18 16 16 17 18 19 19 19 19 18 18 18
3 3 3 4 4 4 4 4 4 4 4 4 4 5 5 5 5 6 6 7 7 7 7 8 8 8 9 10 11 12 13 14 14 15 15 15 15 14 13 13 13 14 14 14 14 15 18 20 21 21 22 22 22 24 25 26 27 27 26 25 25 26 25 23 22 21 22 23 23 22 22 21 20 18 16 17 18 18 19 19 18 18 19 18 16
1 1 1 1 2 2 1 1 1 1 1 1 1 2 2 3 3 4 4 4 5 5 5 6 6 6 7 9 10 11 13 14 14 15 16 16 16 16 16 16 17 17 17 16 16 16 17 18 18 19 20 20 21 22 23 24 25 25 25 25 26 26 24 22 21 20 22 23 22 22 22 21 20 18 17 17 18 18 19 20 19 18 19 18 16
2 1 1 1 1 1 1 1 1 1 1 1 1 1 1 2 2 2 3 3 4 4 5 4 4 5 6 7 8 9 10 11 11 12 12 12 12 12 13 14 15 16 17 18 18 18 19 19 19 19 19 20 20 21 22 23 23 24 24 24 25 24 22 21 20 20 22 23 22 21 21 20 19 18 17 17 18 19 19 20 18 16 17 18 18
3 2 2 2 2 3 3 3 3 3 3 3 3 2 2 2 2 2 3 3 3 3 4 4 3 4 5 5 6 9 10 10 9 9 9 10 10 11 12 13 14 15 17 18 18 19 19 20 20 20 20 21 21 21 22 22 23 23 23 23 22 22 21 21 21 21 22 22 21 21 20 20 19 18 18 18 18 18 18 18 17 16 17 18 19
4 4 4 4 5 5 5 5 5 4 4 4 4 3 3 3 2 2 2 2 2 2 3 3 4 4 4 4 6 8 9 8 8 9 10 10 11 12 13 14 15 16 17 18 18 19 21 21 22 22 22 21 21 21 21 22 22 22 22 22 22 22 22 22 22 22 22 21 21 20 20 19 19 19 19 19 18 18 17 18 18 19 19 18 18
7 7 7 6 6 6 5 5 5 4 4 4 3 3 3 2 2 2 2 2 2 2 3 3 4 5 5 4 5 6 7 8 9 9 10 11 11 12 13 13 14 15 16 17 19 20 22 23 24 24 24 22 21 19 19 20 21 21 21 21 21 22 22 22 22 22 21 21 20 19 18 18 18 19 19 19 18 18 18 19 19 19 18 18 18
7 7 6 6 5 5 5 4 4 3 3 3 2 2 2 2 1 1 1 1 2 3 3 4 4 5 4 4 5 6 7 8 8 8 9 10 10 11 11 12 12 13 14 16 17 18 20 22 23 24 24 23 22 20 18 18 18 18 19 19 19 20 21 21 21 21 20 20 19 18 17 18 18 18 19 19 19 18 19 19 19 18 18 18 17
6 6 5 5 5 4 4 4 3 3 2 2 2 2 1 1 1 1 1 2 2 3 3 3 4 4 4 4 5 6 7 7 8 8 9 10 10 10 11 11 12 13 13 14 15 16 17 20 21 22 23 23 22 21 20 19 19 19 20 20 20 20 20 20 19 18 17 17 17 17 17 18 18 19 19 19 18 19 19 19 18 17 16 16 15
5 5 4 4 4 3 3 3 2 2 2 1 0 0 1 1 1 2 2 2 2 2 3 3 4 5 5 5 6 6 7 8 9 9 10 10 11 11 12 12 13 14 14 14 14 14 16 17 19 20 21 21 20 20 20 21 21 22 21 20 19 19 18 18 17 16 16 16 17 17 17 18 19 19 19 19 19 19 19 18 17 16 16 16 16
5 4 4 3 3 2 2 2 1 1 1 1 1 2 2 2 2 2 2 2 2 3 3 4 5 6 6 7 7 7 8 9 10 11 11 11 12 12 13 13 14 15 15 15 15 15 15 16 17 18 19 19 19 19 19 19 18 18 18 17 17 16 16 16 17 16 16 16 17 17 18 19 19 19 19 19 19 18 18 18 17 17 17 17 17
4 4 4 4 3 3 2 2 2 2 2 2 2 2 2 2 2 2 2 3 3 4 5 5 6 6 7 8 8 9 9 10 11 12 12 12 12 13 13 14 15 15 16 16 15 15 16 16 17 17 18 18 18 18 18 17 16 15 15 15 15 15 15 15 15 16 16 16 17 18 18 19 19 19 19 19 18 18 19 18 17 17 17 16 15
4 5 4 4 4 3 3 3 2 2 2 2 2 2 2 2 3 3 4 4 5 5 6 6 7 8 8 9 9 10 10 11 12 12 12 12 12 12 13 14 15 15 16 16 15 15 15 16 16 17 17 17 17 17 17 17 16 14 14 14 14 14 14 14 15 16 16 16 17 18 18 19 19 19 19 18 18 18 18 17 16 16 15 14 14
4 4 4 4 3 3 2 2 2 2 2 2 2 3 3 4 4 4 5 6 7 7 8 8 9 9 10 10 10 11 11 12 12 13 13 13 13 13 13 14 14 15 16 16 16 15 15 15 16 16 16 16 16 16 16 17 16 15 14 14 14 14 14 15 16 16 16 17 17 18 18 19 19 18 18 18 17 17 17 16 15 15 15 14 15
3 3 3 2 2 1 1 1 1 2 2 3 3 4 4 5 6 6 7 8 9 9 9 9 10 10 11 11 11 12 12 13 13 14 14 14 14 14 14 15 15 15 16 17 16 16 16 15 15 15 16 16 16 16 16 16 16 15 15 14 14 14 14 15 16 16 16 16 17 17 17 17 18 18 17 16 15 15 15 15 15 15 16 15 16
1 1 1 0 1 1 2 3 3 4 4 5 6 6 7 8 8 8 9 10 10 10 10 11 11 12 12 12 13 14 14 15 15 15 15 15 15 15 15 15 16 16 17 17 17 16 16 16 15 15 15 16 16 16 16 15 15 15 15 14 14 14 15 15 15 15 15 15 15 16 16 17 17 17 16 15 14 14 15 16 16 17 17 16 17
Wind_Direction
189 188 188 187 186 184 183 183 182 182 181 179 178 177 176 175 174 173 171 170 170 169 167 165 165 165 166 166 165 165 167 166 166 168 169 173 178 181 188 191 197 204 205 207 205 202 206 208 207 205 203 204 205 208 215 221 226 228 227 232 232 238 260 263 261 284 302 312 313 316 321 322 326 330 330 331 334 336 336 337 338 339 339 338 338
190 190 189 188 188 186 186 186 185 184 183 182 181 180 179 178 177 176 174 173 173 171 169 168 169 170 169 168 168 170 171 170 170 173 177 179 182 185 191 196 203 209 212 214 212 210 212 213 213 213 211 212 219 222 226 228 228 233 237 243 250 251 262 274 275 281 296 306 311 315 320 324 326 329 332 333 335 336 335 335 336 336 335 335 334
190 190 189 189 188 188 188 188 188 187 186 184 183 182 182 180 179 179 177 175 174 173 173 172 172 172 171 171 172 172 174 175 174 178 183 184 184 186 192 198 205 212 216 218 218 216 216 216 218 220 220 224 230 231 233 237 235 238 245 249 261 273 274 277 277 275 289 301 308 314 319 324 326 329 332 334 334 334 332 332 332 331 331 331 329
190 190 189 188 188 189 189 190 190 189 189 187 186 185 184 183 182 182 180 177 176 175 176 176 175 175 174 174 175 176 177 177 177 182 187 187 186 188 193 200 207 214 218 220 222 222 220 220 223 227 229 230 234 237 237 240 243 245 251 258 269 283 286 280 275 276 285 294 301 310 318 322 324 328 333 334 333 331 329 328 329 328 327 327 326
190 189 188 187 188 190 190 191 191 191 191 190 188 187 186 185 184 184 182 180 179 178 178 178 178 178 178 178 178 179 179 178 179 184 189 189 188 190 195 202 208 216 220 223 225 227 227 228 232 236 239 237 238 242 242 242 247 250 256 267 276 284 286 284 283 285 287 290 298 308 316 319 321 326 332 333 330 329 328 326 326 326 324 324 324
190 189 188 188 189 190 191 192 192 193 193 192 190 189 188 187 186 186 185 184 182 181 181 181 181 181 182 182 181 181 180 179 181 187 191 190 189 193 197 203 211 217 222 227 231 234 235 237 242 245 246 247 245 245 247 247 250 255 260 269 279 283 282 284 288 292 293 291 296 305 311 317 320 322 327 330 327 325 326 324 323 325 325 324 325
189 189 189 189 190 192 193 194 194 195 195 194 192 191 190 190 189 188 188 188 186 184 183 183 183 183 184 184 184 184 183 181 182 188 192 192 191 195 199 205 214 220 226 232 236 240 244 246 250 253 254 255 253 251 252 253 254 259 265 270 277 279 278 282 285 287 292 293 294 300 306 312 315 315 321 328 323 320 322 321 320 324 327 324 322
189 190 190 191 193 194 195 195 195 196 197 195 193 192 192 192 191 191 191 191 190 188 186 185 184 185 186 188 188 188 187 186 186 189 192 192 192 196 201 208 215 222 230 237 241 245 250 253 255 257 259 258 258 256 255 255 257 259 264 270 273 273 273 277 280 281 286 289 292 298 303 308 313 314 319 325 323 320 323 319 315 318 322 320 319
190 191 192 193 195 196 195 196 196 196 197 195 194 194 194 194 194 194 194 193 193 191 189 187 186 186 188 191 193 192 192 192 192 193 194 194 194 197 203 210 217 225 233 240 247 251 254 257 257 258 259 258 258 258 256 257 259 261 265 266 266 267 270 273 275 279 284 285 291 299 302 304 311 315 317 320 321 319 322 320 314 315 319 317 316
191 192 194 196 197 196 195 196 196 196 197 196 195 195 195 195 195 196 196 195 194 193 191 190 190 191 192 194 196 197 197 197 197 198 199 198 198 201 206 212 218 226 235 243 250 255 257 258 259 259 259 257 256 256 255 254 254 257 262 263 262 263 266 269 271 275 282 284 290 298 298 298 307 312 311 315 319 318 320 320 316 316 320 318 315
192 194 197 197 197 196 196 196 196 196 197 196 196 196 196 197 197 198 198 197 196 195 194 194 194 195 197 199 201 202 202 201 200 202 204 203 205 207 211 217 221 228 237 243 251 257 259 260 260 259 259 259 258 256 253 251 251 252 253 255 258 261 262 267 271 275 281 284 288 292 292 295 306 311 310 313 318 317 316 317 316 318 321 319 315
195 197 197 197 197 197 196 195 195 197 197 197 197 198 198 198 199 199 199 199 198 197 197 198 198 199 202 204 207 208 207 205 205 207 211 210 211 214 216 220 225 231 238 244 250 255 259 261 262 261 260 259 258 256 254 252 252 251 250 249 250 251 252 260 269 276 281 283 285 287 291 296 304 310 313 314 314 314 314 315 316 317 315 313 310
197 198 198 198 199 198 196 196 196 197 198 198 199 199 199 200 201 201 201 200 200 199 200 202 202 203 206 209 212 212 211 210 210 212 217 218 219 220 221 225 229 233 238 244 249 253 258 262 263 263 262 259 257 256 255 254 253 252 251 250 249 246 245 252 262 270 275 279 282 284 289 296 300 304 309 310 310 313 315 314 314 314 310 307 305
199 199 199 199 200 198 197 197 197 198 199 200 200 200 201 203 203 203 203 202 202 203 203 205 206 207 210 212 215 216 214 213 215 218 222 225 226 227 227 229 232 236 239 243 247 252 256 260 262 263 262 259 258 256 256 257 257 255 253 252 251 249 250 256 261 265 269 272 277 281 284 289 295 300 304 307 311 313 314 312 311 310 305 302 301
201 201 200 200 200 199 198 198 199 200 200 201 202 203 204 205 205 205 205 205 206 206 206 208 210 211 213 215 217 219 218 217 219 222 225 228 232 234 234 233 234 238 240 243 246 250 254 258 261 261 260 259 258 258 258 259 258 257 256 255 252 253 260 266 268 273 276 270 270 279 286 290 295 299 303 307 307 306 305 303 301 302 304 304 306
203 203 202 201 201 200 200 200 201 202 202 202 204 205 206 207 207 208 208 208 209 209 210 213 214 215 216 217 220 222 222 220 221 225 229 230 232 236 239 240 240 241 243 244 246 249 252 256 258 259 259 258 257 256 257 258 258 256 256 256 259 265 270 273 273 272 272 271 276 285 289 291 294 298 303 305 303 302 301 297 299 308 313 311 310
205 205 204 203 203 203 203 203 203 203 203 204 206 208 209 210 210 210 210 210 211 213 215 217 218 219 219 220 223 225 225 223 225 228 230 231 231 235 240 243 244 246 247 247 248 249 251 254 256 258 258 258 256 255 253 251 252 254 256 260 266 270 272 276 273 262 259 270 281 285 283 283 287 295 299 300 300 301 299 299 308 320 319 311 309
208 207 207 207 206 206 205 205 205 205 206 208 210 211 212 212 213 213 213 214 215 217 218 220 221 222 223 224 226 229 230 228 228 230 232 232 233 237 240 243 246 249 250 250 250 250 252 254 254 255 258 258 257 255 250 244 242 245 250 256 261 264 267 270 266 260 267 279 281 275 272 278 287 294 298 297 297 299 299 301 312 316 308 303 303
209 209 209 209 209 208 208 208 208 208 210 212 214 214 214 215 216 217 217 218 219 220 221 222 224 225 226 228 229 232 234 233 231 233 235 234 235 238 241 242 245 249 251 251 251 252 253 254 254 254 257 259 257 254 248 241 239 241 244 250 256 260 263 264 264 270 279 283 278 270 274 283 291 295 296 295 297 304 307 306 306 305 301 297 296
211 211 211 211 211 211 211 211 212 213 215 217 217 217 218 219 220 221 221 222 222 223 224 225 228 229 229 230 232 234 236 236 234 235 237 236 236 239 241 242 244 249 251 251 252 253 254 255 254 253 255 257 256 255 249 240 238 243 246 248 253 259 264 267 272 278 280 277 272 272 280 288 294 296 294 294 300 310 315 313 308 304 301 296 295
212 213 213 213 214 215 215 216 217 218 220 221 221 221 222 223 224 225 225 225 225 226 228 229 232 234 233 233 235 237 238 239 238 237 238 238 238 238 242 245 247 249 251 251 252 254 255 256 256 254 253 253 252 250 245 239 238 244 248 251 255 261 267 271 274 276 275 273 273 277 283 290 293 292 291 294 303 313 316 316 314 309 302 298 296
215 215 215 216 218 219 220 220 221 222 223 224 224 226 226 227 228 229 229 229 229 230 232 233 235 238 238 238 239 240 241 242 241 240 239 240 240 239 243 249 251 249 249 251 253 254 256 258 259 258 254 251 249 245 241 239 239 242 247 252 256 259 262 267 272 275 275 275 276 280 285 289 290 289 290 294 302 310 314 316 314 309 304 300 297
217 217 218 220 221 222 223 224 225 226 227 227 228 229 230 230 230 231 231 231 232 233 234 236 238 241 243 243 243 244 244 244 244 243 242 242 241 241 243 248 250 250 249 251 253 256 258 259 261 261 256 252 249 246 241 240 240 241 246 250 253 253 255 262 269 274 275 276 278 282 286 288 288 289 291 295 301 307 311 314 312 309 308 308 306
218 220 222 223 224 226 227 228 229 229 230 230 230 230 231 231 231 232 232 231 232 234 237 237 238 241 244 246 247 248 248 247 247 247 246 244 243 242 242 244 247 250 252 255 256 256 259 261 262 262 259 254 250 245 241 239 237 239 243 244 245 246 250 259 268 272 273 275 278 282 285 286 287 290 294 299 303 306 309 310 308 309 311 314 315
219 222 223 225 227 228 229 230 231 232 232 232 231 231 231 231 230 231 231 231 232 235 237 238 238 240 244 247 250 251 251 251 250 249 248 247 245 244 242 242 243 246 252 257 260 261 262 263 264 264 262 257 249 242 240 238 238 241 241 238 239 245 252 261 270 272 271 273 277 279 282 284 286 289 295 301 304 304 308 309 307 308 315 319 319
219 222 224 227 228 229 230 231 232 233 234 234 235 235 234 233 232 232 231 232 232 235 237 237 238 240 243 247 251 253 254 255 255 255 253 251 249 247 245 244 243 243 248 255 261 265 266 264 264 262 258 250 242 239 240 240 240 242 239 234 239 248 255 265 273 272 270 273 276 277 280 283 284 288 294 299 301 303 309 312 311 313 320 324 322
217 221 223 227 228 229 231 232 233 233 234 234 235 236 235 235 234 233 232 232 232 234 236 237 238 240 243 247 252 255 257 258 259 260 260 259 257 255 252 250 248 246 245 247 251 256 260 261 260 255 248 243 239 239 243 244 243 242 240 237 241 250 258 268 275 274 272 272 274 275 278 281 282 286 291 295 297 302 309 313 314 317 324 326 320
215 221 224 227 229 231 233 234 235 235 236 236 236 236 235 235 235 236 237 236 235 235 237 238 239 241 244 249 254 258 261 261 262 264 266 268 269 267 264 261 256 250 245 243 242 245 250 253 252 245 240 240 240 239 241 242 240 240 240 240 243 250 259 269 274 273 271 270 272 275 278 279 280 284 289 292 295 300 307 311 314 318 323 323 315
211 218 222 225 230 232 233 235 237 238 238 239 239 240 239 239 240 242 243 243 243 244 244 246 248 249 250 254 257 259 263 266 269 272 276 278 278 276 273 268 263 256 249 243 240 242 244 245 244 242 239 238 238 238 239 239 236 235 236 239 243 250 259 268 273 273 271 269 271 274 275 276 278 281 287 291 294 299 306 311 314 317 319 317 309
214 220 224 227 230 232 233 235 237 238 240 241 242 242 241 242 244 246 248 248 249 250 252 254 257 258 259 261 261 263 268 274 279 283 284 284 283 281 278 274 268 263 255 245 238 240 242 241 241 240 238 238 238 238 238 236 234 234 235 238 244 252 261 267 272 273 270 267 268 271 272 273 276 281 287 291 293 298 303 307 312 315 314 312 307
230 230 233 236 237 237 239 240 240 240 241 243 244 245 245 245 246 248 251 253 254 255 256 259 262 264 265 268 270 271 275 279 283 284 281 278 275 273 272 269 265 263 256 243 234 236 238 238 240 240 238 238 239 238 237 236 236 239 242 246 251 257 261 264 268 270 268 265 266 268 269 271 275 280 286 289 293 297 300 304 309 311 311 309 304
246 246 247 248 249 248 248 248 248 248 247 247 249 251 252 253 253 253 255 258 261 261 261 263 265 264 264 268 273 276 280 283 285 281 273 268 264 261 260 259 256 253 247 235 232 236 237 237 240 242 239 238 239 239 238 237 239 242 245 249 253 256 257 261 268 271 267 263 264 265 266 269 274 279 283 287 291 296 299 302 306 309 310 308 303
254 262 265 267 267 264 263 262 261 260 260 259 260 259 260 262 265 267 267 265 265 265 264 263 265 266 265 266 269 274 280 283 283 279 272 267 265 264 261 257 252 247 238 230 232 237 238 238 242 244 242 241 242 241 240 239 240 243 245 248 251 253 254 260 267 269 264 261 261 263 265 268 271 276 280 282 286 291 296 299 303 305 306 304 302
261 269 274 278 279 277 277 276 273 272 271 270 270 270 270 271 273 277 279 277 275 273 270 265 262 264 269 272 271 272 277 279 277 274 269 264 263 264 262 259 256 251 244 237 236 239 240 241 243 244 244 244 244 243 241 241 241 242 244 247 250 251 251 255 262 265 263 260 260 262 264 267 269 273 277 279 283 288 291 294 298 300 299 298 299
282 283 284 284 283 282 281 280 278 279 278 277 277 278 278 278 279 281 285 287 288 288 284 274 260 253 257 265 267 265 267 270 270 270 269 267 267 268 265 261 257 254 251 249 248 249 249 248 248 248 246 244 244 243 242 242 242 242 244 248 250 249 248 252 259 264 263 260 259 262 264 266 268 271 273 277 281 286 288 292 295 295 294 294 297
295 293 291 291 290 287 286 284 282 280 277 277 277 276 276 279 281 282 286 289 289 290 290 286 274 259 255 259 261 257 255 256 259 261 264 267 273 281 285 283 277 272 267 264 263 264 264 264 265 265 260 254 250 248 246 245 245 245 247 251 251 249 249 254 261 264 263 259 259 262 263 265 268 271 272 276 280 283 285 289 292 293 293 293 294
304 298 296 298 297 292 289 287 281 277 275 273 271 272 273 276 278 280 282 283 283 284 286 286 284 276 267 265 268 266 263 262 262 262 264 267 271 278 287 294 296 296 295 294 291 288 285 283 282 282 279 273 266 260 256 253 252 252 254 255 253 251 254 260 264 265 262 259 259 261 262 265 268 271 273 276 280 283 286 288 290 291 292 291 291
360 343 324 306 303 302 300 294 282 275 275 265 259 265 267 265 266 271 272 272 275 277 277 278 282 283 277 275 278 279 276 274 273 272 272 274 277 281 285 288 291 294 295 297 298 297 295 295 295 295 293 289 283 276 270 266 263 262 262 260 256 255 257 261 264 263 259 258 259 260 262 265 269 273 275 276 278 282 285 287 289 291 293 293 291
75 75 83 89 86 100 118 132 141 145 143 148 169 195 218 230 240 248 252 254 257 260 264 267 273 283 285 285 292 300 302 300 299 296 293 291 290 290 292 294 296 298 300 300 301 301 300 299 299 299 298 296 294 289 285 280 277 273 268 262 258 258 259 262 264 263 260 259 260 261 263 266 270 274 275 275 278 281 285 287 289 290 290 290 289
98 102 108 110 113 118 122 125 129 132 132 136 148 161 169 183 202 214 225 235 239 246 262 274 283 293 298 306 323 328 324 320 317 313 309 306 303 301 301 301 302 302 303 304 305 306 305 303 303 302 301 299 298 296 294 292 287 281 274 268 264 264 267 269 269 265 261 259 260 261 263 265 269 273 275 276 279 282 284 285 285 284 283 286 289
103 105 105 106 110 113 116 120 125 126 129 137 144 147 152 163 180 194 210 230 242 254 274 288 292 293 298 324 344 336 319 307 304 302 301 302 302 300 300 300 299 299 300 300 301 301 300 300 301 301 301 301 301 299 298 296 291 284 279 276 274 273 274 273 269 265 261 260 261 261 263 265 268 272 276 278 281 282 281 279 280 283 286 288 290
103 107 106 107 110 114 116 119 122 122 128 137 139 141 148 156 165 187 211 233 256 270 278 283 286 286 287 302 319 311 297 293 295 295 294 295 297 298 299 299 298 297 296 296 297 297 297 297 297 297 297 297 299 300 300 296 291 286 284 282 281 279 277 274 271 267 265 264 265 265 266 268 271 274 277 280 280 279 278 278 281 285 289 291 292
110 112 112 114 117 118 116 115 115 116 122 125 122 125 134 139 151 190 229 245 261 274 279 280 282 282 282 287 291 290 292 296 299 301 303 304 304 305 306 305 302 299 297 295 295 295 295 296 296 295 293 291 290 292 294 294 291 289 288 288 287 285 281 277 274 271 270 270 271 271 271 272 274 276 277 278 278 277 278 280 283 287 291 295 297
123 122 121 123 122 119 119 119 116 115 117 118 120 126 133 143 192 236 259 260 262 273 280 284 290 293 295 297 297 296 299 303 305 307 310 311 310 310 310 307 304 301 298 297 296 295 294 295 295 295 295 292 288 285 284 284 286 287 289 290 290 286 282 278 276 275 276 276 276 275 274 274 276 277 277 277 278 278 279 280 283 288 293 296 296
125 123 122 122 122 123 125 125 121 123 129 138 165 199 264 277 263 260 262 258 258 268 276 287 299 303 303 305 307 306 306 307 307 309 310 310 311 312 311 310 309 307 305 305 304 301 299 298 297 297 298 297 293 288 282 279 280 282 283 285 284 281 279 278 278 278 278 276 274 274 274 275 276 277 277 278 278 277 278 280 282 286 291 292 289
127 126 125 128 132 133 134 135 146 185 219 249 257 253 258 256 247 247 255 259 268 280 285 291 298 299 301 304 306 306 307 307 305 306 308 309 311 312 312 311 309 308 307 308 307 304 303 301 299 299 299 298 297 293 288 284 283 282 280 280 278 275 274 275 275 275 274 271 271 273 273 274 275 275 275 277 277 276 277 280 282 284 289 290 289
136 133 133 139 141 143 153 169 185 207 221 227 227 226 231 237 241 252 265 273 279 284 287 291 295 296 298 300 300 300 303 303 302 304 306 307 309 311 311 309 307 306 305 305 304 303 302 299 297 296 296 296 296 296 294 292 291 287 283 280 276 273 272 271 270 269 268 267 268 269 269 270 272 273 273 274 274 274 276 278 281 286 290 290 289
131 128 130 136 137 143 157 165 169 185 200 205 209 217 229 243 254 263 270 275 279 282 284 288 290 291 292 293 295 297 298 298 299 301 303 304 306 308 306 304 304 303 302 302 301 300 299 297 295 294 294 293 294 295 295 295 295 291 287 283 278 275 273 270 267 266 266 264 265 266 266 267 269 270 271 272 272 273 277 280 282 287 291 288 285
121 121 123 125 128 138 153 160 173 198 214 223 232 242 250 258 263 268 273 276 279 282 284 286 288 289 290 292 294 295 295 295 296 298 299 300 302 304 302 301 301 300 298 298 298 297 297 296 294 294 293 293 293 292 292 292 292 290 287 284 278 274 272 268 266 266 265 263 264 264 264 266 268 268 269 272 273 274 277 279 281 286 288 284 282
122 117 114 119 128 140 172 212 241 258 264 266 265 266 270 273 275 278 281 281 281 283 285 286 287 289 290 292 293 293 293 294 294 295 297 298 299 300 299 298 297 296 295 295 295 295 295 294 292 292 291 291 291 290 289 290 289 287 285 282 278 275 272 269 268 268 267 266 266 265 263 264 266 266 267 270 271 271 274 277 282 285 285 280 280
138 125 123 188 244 267 268 270 275 277 277 279 281 281 281 282 283 283 282 282 283 284 284 284 285 286 288 290 291 292 292 292 293 295 296 297 298 298 298 297 296 296 295 295 294 295 295 295 294 293 292 290 289 288 286 286 286 284 282 280 277 274 272 270 268 268 266 264 264 264 263 263 264 265 266 269 270 271 275 280 282 282 281 278 280
Height
831 834 836 839 841 843 845 847 848 850 852 854 855 857 858 860 862 864 865 867 869 870 872 873 875 877 879 881 883 884 885 885 886 886 886 886 887 888 889 890 891 891 892 892 892 892 892 891 891 891 891 890 890 890 890 890 890 890 890 890 890 890 890 889 889 883 879 879 879 878 877 875 873 872 870 867 865 864 861 860 858 856 854 852 850
829 831 834 837 839 841 843 845 847 849 851 852 854 856 857 859 861 863 864 866 868 869 870 872 874 876 878 880 882 883 884 884 884 885 885 885 885 886 887 888 889 890 891 891 891 891 891 890 890 889 889 889 889 889 889 889 889 889 889 889 889 889 888 888 887 884 879 876 876 876 875 873 871 869 868 865 862 860 858 857 856 854 853 851 848
827 829 832 835 837 840 842 844 846 848 849 851 852 854 856 858 860 861 863 865 867 869 870 871 873 875 877 879 881 882 883 883 883 884 884 884 884 885 886 887 888 889 889 890 890 890 889 889 889 888 888 887 887 887 887 887 887 887 887 887 887 887 887 886 885 884 880 876 874 874 872 871 870 868 866 864 862 859 856 854 853 852 851 849 846
825 827 830 833 836 838 839 842 843 845 847 848 850 852 854 856 858 860 862 864 865 867 868 869 871 874 876 878 879 881 881 882 882 883 883 883 883 884 885 886 887 887 888 888 888 888 888 887 887 886 886 886 886 885 886 886 886 886 885 885 885 885 884 884 884 883 881 877 873 872 872 870 868 867 865 862 860 858 856 853 851 850 848 847 845
822 825 827 830 833 835 836 839 840 842 844 846 848 850 852 854 856 858 860 862 863 864 866 867 869 872 874 876 878 879 880 880 880 881 882 882 882 882 883 884 885 886 886 886 886 886 886 886 885 885 884 884 884 884 884 884 884 884 884 883 883 883 882 882 882 881 880 877 873 871 871 869 867 865 864 861 858 855 854 851 850 849 846 844 843
820 822 825 827 829 832 834 835 837 839 842 844 846 848 850 852 854 857 859 860 861 862 863 865 867 870 873 875 876 877 878 878 878 880 881 880 880 881 882 883 884 884 884 884 884 884 884 884 883 883 882 882 882 882 882 882 882 882 881 881 881 881 880 880 880 879 878 876 873 870 869 868 866 863 863 862 859 855 851 847 846 847 845 842 840
817 819 822 824 826 828 830 832 834 837 840 842 844 846 848 851 852 855 857 858 859 860 861 863 866 869 871 873 875 876 876 876 876 878 879 879 879 879 880 881 882 882 882 882 882 882 882 882 881 881 881 880 880 881 880 880 880 879 879 879 879 879 878 878 878 877 876 874 873 870 868 868 866 863 861 861 858 856 854 848 843 843 843 840 837
814 817 819 821 823 824 827 830 832 835 838 840 843 844 846 849 851 853 855 856 857 858 859 861 864 867 870 872 874 874 874 874 874 876 876 876 877 877 878 879 880 880 880 880 880 880 880 879 879 879 879 878 878 878 878 878 877 877 877 877 877 876 876 876 875 875 874 872 871 870 868 866 865 862 860 859 856 853 854 851 845 842 840 838 836
811 814 816 817 819 821 825 828 831 834 836 838 840 842 844 847 849 851 852 854 856 857 858 860 862 865 868 870 872 872 872 872 872 873 874 874 874 875 876 877 877 878 878 878 878 877 877 877 877 877 877 876 876 876 876 876 875 875 875 875 875 874 874 874 873 872 872 871 869 868 867 865 864 861 858 857 856 852 851 850 846 842 839 835 833
808 810 812 814 817 820 823 826 829 831 833 836 838 840 842 845 847 848 850 852 854 854 856 858 860 863 865 867 869 870 870 870 870 871 872 872 872 873 874 874 875 875 875 875 875 875 875 875 875 875 874 874 874 874 873 873 873 873 873 872 872 872 872 871 871 870 869 869 868 867 865 863 863 861 857 855 855 853 850 848 844 841 839 833 828
805 807 810 813 816 818 821 823 826 828 830 833 835 837 840 842 844 846 848 850 851 852 854 856 858 861 863 865 866 867 867 868 868 869 869 869 870 870 871 872 872 873 873 873 873 872 872 872 872 872 872 872 871 871 871 871 871 871 870 870 870 869 869 869 868 868 867 866 866 866 864 862 861 860 858 855 853 851 849 848 844 840 838 834 827
803 805 808 812 814 816 818 820 823 826 828 831 833 835 838 840 842 844 845 847 849 850 852 854 856 859 861 863 864 865 865 866 866 866 866 866 867 868 869 869 869 870 870 870 870 870 870 870 870 870 869 869 869 868 868 868 868 868 867 867 867 867 867 867 866 865 865 864 864 864 863 861 859 858 857 854 852 850 847 846 844 841 838 835 830
802 804 806 809 811 813 816 818 821 823 825 828 831 833 835 837 839 841 842 844 846 847 850 852 854 856 858 860 861 862 863 863 863 863 863 864 865 865 866 866 866 867 867 867 867 867 867 867 867 867 867 866 866 866 865 865 865 865 865 864 864 864 864 864 864 863 863 862 862 861 861 860 858 857 856 854 851 848 846 844 843 841 837 834 831
802 803 804 807 809 812 815 817 819 822 824 827 829 831 832 834 836 838 840 842 843 844 847 849 851 853 854 856 858 859 860 861 861 861 861 861 862 862 863 863 863 864 864 864 864 864 864 864 864 864 864 864 863 863 862 862 862 862 862 861 861 862 862 862 861 861 861 861 860 859 859 858 857 855 854 853 850 847 845 843 841 839 836 832 829
801 802 803 805 807 810 813 815 818 820 822 825 826 828 830 832 834 836 838 839 840 841 844 846 848 849 851 853 855 856 857 858 858 858 858 858 859 859 860 860 860 861 861 861 861 861 861 861 861 861 861 861 861 860 860 859 859 859 859 858 859 859 859 859 858 858 858 858 857 857 856 856 855 854 852 851 848 846 844 842 840 838 833 828 825
800 801 801 803 805 808 811 813 816 818 820 822 824 826 828 830 832 834 835 836 838 840 842 843 844 846 848 850 851 852 854 855 855 855 855 856 856 856 856 856 857 857 857 858 858 858 858 858 858 858 858 858 858 858 857 857 856 856 855 855 856 856 855 855 855 855 855 855 855 854 854 853 852 851 850 848 846 843 841 839 837 835 831 826 822
797 799 800 801 803 806 808 811 813 816 818 820 821 823 825 827 829 831 832 834 835 837 838 839 841 843 844 846 847 848 850 852 852 852 852 853 853 853 852 852 852 853 854 854 854 854 854 855 855 855 855 855 855 855 854 854 853 853 852 852 852 852 851 852 852 852 852 852 852 852 851 851 849 848 846 845 843 841 838 836 834 832 830 826 821
794 796 798 799 801 804 806 809 811 814 816 817 818 820 822 824 826 827 829 831 832 833 835 837 839 840 841 843 844 845 847 848 849 849 849 850 850 849 849 849 848 849 849 849 849 850 850 851 851 851 850 851 851 851 851 851 850 849 849 849 849 848 848 849 849 849 849 849 849 848 848 847 845 844 843 842 840 839 836 834 832 830 828 826 823
790 793 795 797 800 803 805 807 809 811 813 814 816 818 820 822 824 825 827 828 830 831 833 835 836 837 838 839 841 842 843 844 845 845 845 846 846 846 845 845 844 844 845 845 845 845 846 846 846 847 846 847 847 847 847 847 846 846 846 846 845 844 844 845 845 845 845 845 844 844 844 843 842 841 840 839 837 836 834 832 830 828 826 824 822
789 792 794 797 799 801 803 805 807 809 810 812 815 817 818 820 822 823 825 827 828 830 831 832 833 834 835 836 837 838 839 840 842 842 842 843 843 842 842 840 840 840 840 840 840 841 841 841 842 842 843 843 843 843 843 844 843 843 844 843 841 841 842 842 842 842 841 841 841 841 840 839 838 837 836 835 834 832 831 829 828 826 824 821 820
788 791 793 795 797 799 801 803 805 807 809 811 814 815 817 818 820 821 823 825 826 827 828 829 830 830 832 833 834 834 835 836 837 838 838 839 839 839 837 835 835 836 836 836 836 836 836 836 837 839 840 840 840 840 840 840 841 841 840 840 839 839 840 839 839 838 838 838 837 837 837 836 835 834 833 832 830 829 827 826 825 824 822 820 817
787 789 792 794 796 797 800 802 804 806 808 810 812 813 815 817 818 820 822 823 824 825 826 827 827 827 828 829 830 830 831 832 833 834 835 835 835 835 833 831 831 833 833 832 831 831 831 832 833 835 836 836 836 836 837 837 838 838 837 837 837 838 837 836 835 835 835 835 834 833 833 833 832 831 830 828 827 826 824 823 822 820 819 818 815
786 788 790 792 794 796 798 800 802 804 806 808 810 811 813 815 816 818 819 820 821 822 823 824 824 824 825 825 825 826 826 827 828 829 830 831 831 830 829 829 829 829 828 827 827 827 828 829 830 831 832 833 833 833 833 834 834 834 834 834 835 835 834 832 831 832 832 831 831 830 829 829 828 827 827 825 824 822 821 819 818 817 815 814 812
785 787 789 791 793 794 796 799 800 802 804 806 808 809 810 812 813 815 816 817 818 819 819 820 821 821 820 820 820 820 821 822 823 824 825 826 826 827 827 827 827 826 824 823 823 824 825 826 826 827 828 829 829 829 829 829 830 829 830 830 831 831 830 829 829 829 828 828 827 826 826 826 825 824 824 822 821 819 818 817 815 814 812 810 808
784 785 787 789 791 793 795 797 798 800 802 803 805 806 807 809 810 811 813 814 814 815 815 816 817 816 816 815 814 814 815 817 817 818 819 821 822 823 824 824 825 825 822 820 820 821 822 823 823 823 824 825 825 825 825 825 825 826 827 827 826 826 826 826 826 826 825 824 823 823 823 823 822 821 820 819 818 816 814 813 812 811 809 806 803
782 784 786 787 789 791 793 795 796 798 799 800 801 803 804 805 806 808 809 810 810 810 811 812 812 812 812 810 809 809 811 812 812 813 815 816 817 818 819 820 821 822 821 819 818 818 819 819 820 820 820 821 822 822 822 822 823 823 824 824 823 822 823 824 824 823 822 821 820 820 820 820 819 818 817 816 815 813 812 810 808 807 805 803 799
781 783 784 786 788 789 791 792 794 795 797 798 799 800 801 802 803 804 805 805 806 806 807 808 808 808 807 806 806 807 809 809 809 809 811 812 813 815 816 816 816 818 817 817 817 816 815 816 816 817 817 818 818 819 819 819 819 820 820 820 819 819 820 820 820 819 819 818 817 817 817 817 816 815 815 814 812 811 809 807 805 803 802 800 797
780 782 783 785 786 787 789 790 791 793 794 795 796 797 798 799 800 800 800 801 802 802 803 804 804 804 804 804 805 806 806 805 805 806 807 808 809 810 811 811 811 811 811 812 813 814 814 813 813 813 814 814 814 815 815 814 815 815 815 816 816 816 816 817 816 816 815 815 815 814 814 814 813 812 812 811 810 808 807 805 803 801 800 798 796
779 781 782 783 784 785 786 787 788 790 791 791 792 793 795 796 796 796 797 799 800 801 801 801 801 802 803 803 804 804 802 801 803 804 805 805 805 805 805 805 805 805 806 807 810 811 810 810 809 809 810 810 810 810 810 810 810 811 811 812 812 812 813 813 813 813 812 812 812 811 811 811 810 809 808 808 807 806 804 802 801 799 797 796 794
779 779 780 781 782 783 784 785 786 787 788 789 790 791 792 794 794 795 796 798 799 799 800 800 800 801 802 801 802 802 800 799 801 802 801 801 801 800 800 801 801 801 802 804 807 806 805 804 804 804 805 805 805 806 806 806 807 807 807 808 809 809 809 810 810 810 809 809 808 808 808 808 807 806 805 805 804 803 801 800 798 796 795 794 792
778 778 779 780 781 782 783 783 784 785 786 787 788 789 790 792 793 793 794 795 796 797 798 798 799 799 799 798 799 799 799 799 799 799 798 798 798 797 797 797 798 798 799 801 802 800 799 800 799 799 800 801 800 801 802 803 803 803 804 804 805 805 805 806 806 806 806 805 805 805 805 805 804 803 803 802 801 800 799 797 796 794 792 791 789
778 779 780 781 781 782 783 783 784 785 786 786 787 788 789 790 791 792 793 793 794 795 796 796 797 797 797 797 797 796 796 797 797 797 796 796 796 796 796 796 796 796 798 798 797 795 795 796 795 795 796 796 796 797 798 799 799 800 800 800 801 801 801 802 802 802 802 801 802 802 802 802 801 800 800 800 799 797 796 794 793 791 790 788 787
778 779 780 780 781 782 782 783 784 784 785 786 786 787 788 788 789 790 791 792 792 793 793 794 795 795 795 796 795 795 795 794 794 794 794 794 794 794 794 794 794 795 796 795 793 792 792 792 792 792 792 792 793 793 794 794 795 795 796 795 796 796 797 798 798 798 798 798 798 798 798 799 799 798 798 797 797 795 793 792 790 789 787 786 784
778 778 779 780 781 781 782 783 784 784 785 785 786 786 787 788 788 788 789 790 790 791 791 792 793 793 793 793 793 793 793 793 793 792 792 792 792 792 792 792 792 792 792 792 790 789 789 789 788 789 789 789 789 790 790 790 790 791 791 791 791 792 793 794 794 794 794 794 794 794 795 796 795 795 795 795 794 793 791 790 788 786 785 783 782
777 778 779 779 780 781 781 782 783 783 784 785 785 786 786 787 787 787 788 788 789 789 789 790 791 791 791 791 791 791 791 791 791 791 790 790 790 790 790 789 789 789 789 789 788 787 787 786 785 785 785 785 785 785 785 785 786 786 787 787 788 788 789 790 790 790 790 791 791 791 792 792 792 792 792 792 791 790 789 787 786 784 783 781 780
777 778 778 779 780 780 781 781 782 783 783 784 784 785 785 786 786 786 787 787 787 787 788 788 789 789 789 789 789 789 789 789 789 788 788 788 788 787 787 787 787 787 787 787 787 786 785 784 784 783 783 782 782 782 782 782 782 783 783 784 784 785 785 786 786 786 787 787 787 788 788 788 789 789 789 789 788 787 786 785 784 782 780 779 778
777 777 778 779 779 780 780 781 781 782 782 783 784 784 785 785 786 786 786 787 787 787 787 787 787 787 787 787 787 787 787 787 787 787 787 786 786 786 786 785 785 785 785 785 785 785 784 783 783 782 781 781 781 780 780 780 780 780 780 780 780 781 782 782 782 782 783 783 784 784 785 785 786 786 786 785 785 784 784 783 781 780 778 777 775
776 777 777 778 779 779 780 781 781 782 782 782 783 784 784 785 785 785 786 786 786 786 786 786 786 786 786 786 786 785 785 785 785 785 785 784 784 784 784 783 783 783 783 783 783 783 782 782 781 781 780 780 779 779 778 778 778 777 777 777 777 777 778 778 778 779 779 779 780 781 781 782 782 783 783 782 782 781 781 780 779 777 775 774 773
775 776 777 778 778 779 780 780 781 781 782 782 782 783 783 784 784 784 784 785 785 785 785 785 785 784 784 785 785 784 784 783 783 783 783 783 782 782 782 782 782 782 781 781 781 781 780 780 779 779 779 778 778 777 777 776 775 775 774 774 774 774 774 774 775 775 776 776 776 777 778 778 779 780 779 779 778 778 778 777 776 775 773 771 770
775 776 777 777 778 779 779 780 780 781 781 781 781 782 782 782 783 783 783 783 784 784 784 784 784 784 784 784 784 784 783 783 782 782 781 781 781 781 781 781 781 780 780 780 779 779 778 778 777 777 776 776 775 775 774 774 773 772 772 772 771 771 771 771 772 772 772 772 773 774 774 775 776 776 776 776 775 775 775 774 773 772 771 769 767
775 776 776 777 778 778 779 779 779 779 780 780 780 780 781 781 782 782 782 782 783 783 783 783 783 783 783 784 784 784 783 782 782 781 781 781 780 780 780 780 779 779 778 778 777 777 776 775 774 774 773 773 772 772 771 771 771 770 770 769 769 769 769 769 769 769 769 769 770 770 771 772 773 773 773 773 773 772 772 771 770 769 768 766 765
775 776 777 777 778 778 779 779 779 779 780 780 780 780 781 781 781 782 782 782 782 782 782 782 782 782 782 783 783 783 782 781 781 781 780 780 779 779 778 778 778 777 777 776 775 774 773 772 772 771 771 770 770 769 769 769 768 768 767 767 766 766 766 766 766 766 766 766 767 768 769 769 770 770 770 770 770 769 769 768 767 766 765 763 762
775 776 777 777 777 778 778 779 779 779 780 780 780 781 781 781 781 781 781 782 782 781 782 782 782 782 782 782 781 781 780 780 780 779 779 778 778 777 777 777 776 775 775 774 773 773 771 770 769 768 768 767 767 767 766 766 765 765 764 764 764 763 763 763 763 764 764 764 764 765 766 767 767 767 767 767 767 766 766 765 764 763 762 760 759
775 776 776 777 777 778 778 779 779 780 780 780 781 781 781 781 781 781 781 782 781 781 781 781 781 781 781 781 780 780 780 779 778 778 778 777 777 776 776 775 774 774 773 772 772 771 769 768 767 766 765 765 764 764 764 763 763 762 762 761 761 760 760 760 760 761 761 762 762 763 763 764 764 764 764 764 764 763 763 762 761 760 759 758 757
775 776 776 777 778 778 779 779 780 780 780 781 781 781 781 781 781 781 781 781 781 781 781 781 781 781 780 780 779 779 778 778 777 777 776 776 775 775 774 773 772 772 771 770 769 768 767 766 765 763 762 762 761 760 760 760 759 759 758 758 758 757 757 757 758 758 758 759 759 760 760 760 761 761 761 761 761 760 760 759 758 757 756 755 755
775 775 776 777 778 778 779 779 780 780 780 781 780 780 781 781 781 781 781 781 781 781 781 780 780 780 779 779 778 778 777 777 776 775 775 775 774 773 772 771 770 769 768 767 767 766 765 764 762 761 760 759 758 757 757 756 756 755 755 755 754 754 754 754 755 755 756 756 756 757 757 757 757 758 758 758 758 757 757 756 755 755 754 753 752
774 775 775 776 777 778 778 779 779 780 780 780 780 780 780 780 780 780 780 780 780 780 780 779 779 779 778 778 777 777 776 776 775 774 774 773 772 771 770 769 768 767 766 765 764 763 762 761 760 759 758 757 756 755 754 753 753 752 752 752 751 751 751 752 752 752 753 753 753 754 754 754 754 754 755 755 755 754 754 753 753 752 751 750 750
774 775 775 776 776 777 778 778 778 779 779 779 779 780 779 780 780 780 779 779 779 779 779 778 778 777 777 776 776 775 775 774 773 772 772 771 770 769 768 767 766 765 764 763 762 761 760 759 758 757 756 755 753 752 751 751 751 750 749 749 749 749 749 749 749 750 750 750 750 750 751 751 751 751 751 752 752 751 751 750 750 749 749 748 748
775 775 775 775 776 777 777 778 778 778 778 779 779 779 779 779 779 779 779 779 778 778 777 777 776 776 775 775 774 774 773 772 771 770 770 769 768 767 766 765 764 763 761 761 760 759 758 757 756 755 754 752 751 750 749 748 748 747 747 747 747 747 747 746 746 747 747 747 747 748 748 748 748 749 749 749 749 749 748 748 747 747 747 746 746
776 775 775 776 776 776 777 777 777 778 778 778 778 778 778 778 778 778 777 777 777 776 776 775 775 774 774 773 772 771 771 770 769 768 767 766 766 765 764 763 762 760 759 758 757 756 756 755 753 752 751 750 749 748 747 746 746 745 745 744 744 744 744 744 744 744 744 745 745 745 745 745 746 746 746 746 746 746 746 745 745 745 744 744 744
776 775 775 775 775 776 776 776 777 777 777 777 777 777 777 776 776 776 776 775 775 775 774 773 773 772 771 771 770 769 768 767 767 766 765 764 763 762 761 760 759 758 757 756 755 754 753 752 751 750 749 748 747 746 745 744 743 743 742 742 742 742 741 741 742 742 742 742 742 742 743 743 743 743 743 744 744 744 743 743 743 743 742 742 741